{"data":{"norad_id":55176,"epoch":"2026-05-25T03:32:19.908096Z","epoch_age_seconds":62227,"freshness":"FRESH","line1":"1 55176U 23004AN  26145.14745264 -.00000422  00000+0 -12253-2 0  9998","line2":"2 55176  87.8912  25.6528 0001298 100.4969 259.6305 13.11414805162847","mean_motion":13.11414805,"eccentricity":0.0001298,"inclination_deg":87.8912,"raan_deg":25.6528,"arg_perigee_deg":100.4969,"mean_anomaly_deg":259.6305,"bstar":-0.0012253,"rev_number":16284,"period_min":109.80507422287,"perigee_km":1216.7050232698,"apogee_km":1218.6769002086,"semimajor_km":7595.8279617392,"source":"CELESTRAK","updated_at":"2026-05-25T13:38:22.647402Z"}}